Weather Roundup
Issued by NWS Springfield, MO

Home | Current Version | Previous Version | Text Only | Print | Product List | Glossary On
Versions: 1 2 3 4 5 6 7 8 9 10 11 12 13 14 15 16 17 18 19 20 21 22 23 24 25 26 27 28 29 30 31 32 33 34 35 36 37 38 39 40 41 42 43 44 45 46 47 48 49 50
000
NZUS99 KSGF 281759
HRRSGF

HOURLY WEATHER
NATIONAL WEATHER SERVICE SPRINGFIELD MO
100 PM CDT MON JUL 28 2014

......SGF CWA......

CITY           SKY/WX    TMP DP  RH WIND       PRES   REMARKS
SPRINGFIELD    SUNNY     80  56  43 NW10      30.19F
6HR MIN TEMP:  61; 6HR MAX TEMP:  81;

JOPLIN         SUNNY     82  57  42 N13G20    30.21F
6HR MIN TEMP:  60; 6HR MAX TEMP:  83;

WEST PLAINS    MOSUNNY   81  60  48 NW12      30.16F
6HR MIN TEMP:  64; 6HR MAX TEMP:  82;

ROLLA          PTSUNNY   77  57  50 NW14      30.14F
6HR MIN TEMP:  61; 6HR MAX TEMP:  80;

OSAGE BEACH    PTSUNNY   77  57  50 NW6       30.17F
BRANSON        MOSUNNY   82  57  42 W8        30.19F

......SURROUNDING SGF CWA......

CITY           SKY/WX    TMP DP  RH WIND       PRES   REMARKS
CHANUTE        SUNNY     80  59  48 NW13G20   30.24F
PARSONS        SUNNY     82  59  45 N12G17    30.23F
COFFEYVILLE    MOSUNNY   82  59  45 N8G21     30.22F
EMPORIA        SUNNY     80  56  43 NW12      30.26F
SILOAM SPRINGS SUNNY     81  57  44 N9        30.22F
HARRISON AR    SUNNY     79  59  50 NW7       30.18F
NEAR YELLVILLE SUNNY     81  59  47 NW7       30.15F

......KANSAS AND MISSOURI......

CITY           SKY/WX    TMP DP  RH WIND       PRES   REMARKS
KANSAS CTY INT PTSUNNY   77  61  57 NW9       30.23F
DOWNTOWN KC    PTSUNNY   77  61  57 NW8       30.22S
COLUMBIA       MOSUNNY   80  58  46 N10G22    30.17S
SEDALIA        PTSUNNY   78  62  57 NW12      30.20S
ST JOSEPH      PTSUNNY   75  63  66 N10       30.24F
ST LOUIS       PTSUNNY   77  59  53 N14       30.12S
SPIRIT OF STL  PTSUNNY   77  58  51 N9        30.11S
KIRKSVILLE     MOSUNNY   74  55  51 N13       30.20F
WICHITA        MOSUNNY   82  60  47 N9        30.27F
TOPEKA         MOSUNNY   81  58  45 NW10      30.25F
OLATHE         MOSUNNY   78  58  49 N7        30.23S

......TENNESSEE......

CITY           SKY/WX    TMP DP  RH WIND       PRES   REMARKS
MEMPHIS        MOSUNNY   83  62  49 N14G20    30.07F
NASHVILLE      PTSUNNY   83  60  45 N13       30.01F

......ARKANSAS.......

CITY           SKY/WX    TMP DP  RH WIND       PRES   REMARKS
FAYETTEVILLE   SUNNY     81  57  43 NW8       30.20F
FT SMITH       SUNNY     87  57  35 NW9       30.15F
LITTLE ROCK    MOSUNNY   86  60  41 NW10      30.11F

......OKLAHOMA.......

CITY           SKY/WX    TMP DP  RH WIND       PRES   REMARKS
TULSA          PTSUNNY   84  60  44 NW16G22   30.21S
PONCA CITY     SUNNY     84  60  44 NE8       30.25F
MCALESTER      PTSUNNY   85  58  39 N12       30.20F
OKLAHOMA CITY  PTSUNNY   83  60  45 N7        30.27F

......IOWA............

CITY           SKY/WX    TMP DP  RH WIND       PRES   REMARKS
DES MOINES     PTSUNNY   74  54  49 N9        30.21F
QUAD CITIES    SUNNY     72  49  44 N9G23     30.14F

......ILLINOIS........

CITY           SKY/WX    TMP DP  RH WIND       PRES   REMARKS
QUINCY         MOSUNNY   72  54  53 NW10      30.15F
CHICAGO        MOSUNNY   69  41  36 N21G26    30.08F




USA.gov is the U.S. government's official web portal to all federal, state and local government web resources and services.